Torna al catalogo

THOR ABLESTAR DEB

AttivoLEO
NORAD 225·DEBRIS·🇺🇸 United States

Lanciato Jun 29, 1961 da Cape Canaveral Space Force Station

Loading…

Prossimi Passaggi (prossime 24 ore)

TLE

AggiornatoSource: Space-Track

Epoca: Sep 5, 2026, 12:07 UTC

1 00225U 61015BM  26248.50523226  .00000898  00000-0  30479-3 0  9990
2 00225  66.7964  35.1250 0097356 159.9615 200.5354 14.38625173369288

Traccia THOR ABLESTAR DEB in tempo reale con AllMySat

Download on the App Store